| time (UTC) | temp C | wind direction | speed KPH | gust KPH | rain 1hr cm | rain 24hr cm | rain mn cm | humidity % | barometer mb |
| 20260505075633 | 13 | 38 | 0.0 | 4.8 | 0.00 | 0.00 | 0.00 | 62 | 1009.6 |
| 20260505075121 | 13 | 32 | 1.6 | 6.4 | 0.00 | 0.00 | 0.00 | 61 | 1009.6 |
| 20260505074619 | 13 | 25 | 3.2 | 6.4 | 0.00 | 0.00 | 0.00 | 61 | 1009.6 |
| 20260505074122 | 13 | 29 | 0.0 | 3.2 | 0.00 | 0.00 | 0.00 | 62 | 1009.4 |
| 20260505073630 | 13 | 360 | 0.0 | 1.6 | 0.00 | 0.00 | 0.00 | 61 | 1009.4 |
| 20260505073159 | 13 | 307 | 0.0 | 1.6 | 0.00 | 0.00 | 0.00 | 61 | 1009.5 |
| 20260505072618 | 13 | 32 | 0.0 | 3.2 | 0.00 | 0.00 | 0.00 | 61 | 1009.5 |
| 20260505072139 | 13 | 40 | 0.0 | 4.8 | 0.00 | 0.00 | 0.00 | 61 | 1009.5 |
| 20260505071627 | 13 | 4 | 0.0 | 1.6 | 0.00 | 0.00 | 0.00 | 60 | 1009.4 |
| 20260505071128 | 13 | 64 | 0.0 | 4.8 | 0.00 | 0.00 | 0.00 | 61 | 1009.5 |
| 20260505070630 | 13 | 354 | 0.0 | 4.8 | 0.00 | 0.00 | 0.00 | 62 | 1009.5 |
| 20260505070118 | 13 | 216 | 3.2 | 6.4 | 0.00 | 0.00 | 0.00 | 62 | 1009.5 |
| 20260505065620 | 13 | 269 | 0.0 | 3.2 | 0.00 | 0.00 | 0.00 | 62 | 1009.5 |
| 20260505064622 | 13 | 155 | 3.2 | 8.0 | 0.00 | 0.00 | 0.00 | 63 | 1009.5 |
| 20260505064124 | 13 | 129 | 1.6 | 11.3 | 0.00 | 0.00 | 0.00 | 63 | 1009.5 |
| 20260505063632 | 13 | 124 | 0.0 | 11.3 | 0.00 | 0.00 | 0.00 | 62 | 1009.6 |
| 20260505063113 | 13 | 139 | 3.2 | 9.7 | 0.00 | 0.00 | 0.00 | 62 | 1009.6 |
| 20260505062613 | 13 | 35 | 1.6 | 11.3 | 0.00 | 0.00 | 0.00 | 60 | 1009.5 |
| 20260505062115 | 13 | 245 | 3.2 | 11.3 | 0.00 | 0.00 | 0.00 | 60 | 1009.5 |
| 20260505061623 | 13 | 120 | 3.2 | 8.0 | 0.00 | 0.00 | 0.00 | 59 | 1009.4 |
| 20260505061124 | 13 | 77 | 1.6 | 6.4 | 0.00 | 0.00 | 0.00 | 59 | 1009.4 |
| 20260505060612 | 13 | 200 | 0.0 | 6.4 | 0.00 | 0.00 | 0.00 | 58 | 1009.3 |
| 20260505060113 | 13 | 63 | 1.6 | 11.3 | 0.00 | 0.00 | 0.00 | 57 | 1009.3 |
| 20260505055642 | 13 | 139 | 4.8 | 11.3 | 0.00 | 0.00 | 0.00 | 57 | 1009.2 |
| 20260505055123 | 13 | 191 | 3.2 | 9.7 | 0.00 | 0.00 | 0.00 | 56 | 1009.2 |
| 20260505054631 | 13 | 104 | 3.2 | 9.7 | 0.00 | 0.00 | 0.00 | 55 | 1009.4 |
| 20260505054112 | 13 | 274 | 3.2 | 9.7 | 0.00 | 0.00 | 0.00 | 54 | 1009.1 |
| 20260505053640 | 13 | 129 | 1.6 | 6.4 | 0.00 | 0.00 | 0.00 | 53 | 1009.1 |
| 20260505053121 | 13 | 198 | 1.6 | 9.7 | 0.00 | 0.00 | 0.00 | 53 | 1009.0 |
| 20260505052630 | 13 | 155 | 3.2 | 9.7 | 0.00 | 0.00 | 0.00 | 53 | 1009.0 |
| 20260505052130 | 13 | 146 | 3.2 | 9.7 | 0.00 | 0.00 | 0.00 | 52 | 1009.0 |
| 20260505051629 | 14 | 225 | 1.6 | 9.7 | 0.00 | 0.00 | 0.00 | 52 | 1008.9 |
| 20260505051137 | 14 | 126 | 1.6 | 9.7 | 0.00 | 0.00 | 0.00 | 52 | 1008.8 |
| 20260505050618 | 14 | 147 | 0.0 | 3.2 | 0.00 | 0.00 | 0.00 | 53 | 1008.8 |
| 20260505050146 | 14 | 292 | 0.0 | 3.2 | 0.00 | 0.00 | 0.00 | 52 | 1008.8 |
| 20260505041646 | 16 | 126 | 0.0 | 6.4 | 0.00 | 0.00 | 0.00 | 46 | 1008.3 |
| 20260505041127 | 16 | 82 | 3.2 | 6.4 | 0.00 | 0.00 | 0.00 | 46 | 1008.3 |
| 20260505040634 | 16 | 140 | 3.2 | 12.9 | 0.00 | 0.00 | 0.00 | 44 | 1008.3 |
| 20260505040113 | 16 | 192 | 3.2 | 12.9 | 0.00 | 0.00 | 0.00 | 43 | 1008.2 |
| 20260505035613 | 16 | 180 | 4.8 | 9.7 | 0.00 | 0.00 | 0.00 | 43 | 1008.2 |
| 20260505035122 | 15 | 86 | 3.2 | 6.4 | 0.00 | 0.00 | 0.00 | 44 | 1008.1 |
| 20260505034623 | 15 | 30 | 0.0 | 4.8 | 0.00 | 0.00 | 0.00 | 44 | 1008.0 |
| 20260505034125 | 15 | 323 | 0.0 | 1.6 | 0.00 | 0.00 | 0.00 | 44 | 1007.9 |
| 20260505033632 | 15 | 2 | 0.0 | 1.6 | 0.00 | 0.00 | 0.00 | 44 | 1007.7 |
| 20260505033141 | 16 | 2 | 0.0 | 3.2 | 0.00 | 0.00 | 0.00 | 43 | 1007.7 |
| 20260505032622 | 16 | 27 | 0.0 | 4.8 | 0.00 | 0.00 | 0.00 | 42 | 1007.5 |
| 20260505032124 | 16 | 59 | 1.6 | 4.8 | 0.00 | 0.00 | 0.00 | 43 | 1007.5 |
| 20260505031631 | 16 | 58 | 0.0 | 3.2 | 0.00 | 0.00 | 0.00 | 43 | 1007.4 |
| 20260505031111 | 16 | 108 | 0.0 | 1.6 | 0.00 | 0.00 | 0.00 | 42 | 1007.4 |
| 20260505030613 | 16 | 224 | 0.0 | 1.6 | 0.00 | 0.00 | 0.00 | 42 | 1007.4 |
| 20260505030123 | 17 | 225 | 0.0 | 3.2 | 0.00 | 0.00 | 0.00 | 40 | 1007.4 |
| 20260505025631 | 17 | 148 | 1.6 | 3.2 | 0.00 | 0.00 | 0.00 | 40 | 1007.4 |
| 20260505025112 | 17 | 354 | 0.0 | 1.6 | 0.00 | 0.00 | 0.00 | 39 | 1007.4 |
| 20260505024613 | 17 | 39 | 0.0 | 3.2 | 0.00 | 0.00 | 0.00 | 38 | 1007.3 |
| 20260505024115 | 17 | 39 | 1.6 | 3.2 | 0.00 | 0.00 | 0.00 | 37 | 1007.3 |
| 20260505023643 | 18 | 32 | 1.6 | 3.2 | 0.00 | 0.00 | 0.00 | 37 | 1007.2 |
| 20260505023124 | 18 | 160 | 0.0 | 4.8 | 0.00 | 0.00 | 0.00 | 35 | 1007.2 |
| 20260505022630 | 18 | 148 | 1.6 | 6.4 | 0.00 | 0.00 | 0.00 | 34 | 1007.2 |
| 20260505022112 | 18 | 128 | 0.0 | 4.8 | 0.00 | 0.00 | 0.00 | 34 | 1007.1 |
| 20260505021618 | 18 | 160 | 1.6 | 9.7 | 0.00 | 0.00 | 0.00 | 33 | 1007.0 |
| 20260505021146 | 19 | 117 | 4.8 | 9.7 | 0.00 | 0.00 | 0.00 | 33 | 1007.0 |
| 20260505020648 | 19 | 86 | 0.0 | 6.4 | 0.00 | 0.00 | 0.00 | 34 | 1007.0 |
| 20260505020114 | 19 | 137 | 1.6 | 8.0 | 0.00 | 0.00 | 0.00 | 33 | 1007.0 |
| 20260505015615 | 18 | 134 | 1.6 | 11.3 | 0.00 | 0.00 | 0.00 | 33 | 1007.0 |
| 20260505015117 | 18 | 87 | 4.8 | 11.3 | 0.00 | 0.00 | 0.00 | 33 | 1006.9 |
| 20260505014645 | 18 | 146 | 3.2 | 8.0 | 0.00 | 0.00 | 0.00 | 33 | 1006.9 |
| 20260505014133 | 18 | 59 | 3.2 | 6.4 | 0.00 | 0.00 | 0.00 | 32 | 1006.9 |
| 20260505013614 | 18 | 78 | 1.6 | 8.0 | 0.00 | 0.00 | 0.00 | 32 | 1006.9 |
| 20260505013113 | 18 | 102 | 3.2 | 8.0 | 0.00 | 0.00 | 0.00 | 32 | 1007.0 |
| 20260505012614 | 19 | 102 | 1.6 | 9.7 | 0.00 | 0.00 | 0.00 | 31 | 1007.0 |
| 20260505012121 | 19 | 68 | 3.2 | 9.7 | 0.00 | 0.00 | 0.00 | 31 | 1007.0 |
| 20260505011619 | 19 | 82 | 3.2 | 11.3 | 0.00 | 0.00 | 0.00 | 31 | 1007.0 |
| 20260505011127 | 19 | 52 | 3.2 | 11.3 | 0.00 | 0.00 | 0.00 | 31 | 1007.0 |
| 20260505010656 | 19 | 82 | 3.2 | 6.4 | 0.00 | 0.00 | 0.00 | 32 | 1007.1 |
| 20260505010115 | 19 | 93 | 3.2 | 11.3 | 0.00 | 0.00 | 0.00 | 32 | 1007.0 |
| 20260505005613 | 19 | 61 | 6.4 | 12.9 | 0.00 | 0.00 | 0.00 | 32 | 1007.0 |
| 20260505005120 | 18 | 61 | 4.8 | 17.7 | 0.00 | 0.00 | 0.00 | 32 | 1007.0 |
| 20260505004623 | 19 | 88 | 4.8 | 11.3 | 0.00 | 0.00 | 0.00 | 32 | 1007.2 |
| 20260505004124 | 19 | 105 | 3.2 | 14.5 | 0.00 | 0.00 | 0.00 | 32 | 1007.1 |
| 20260505003632 | 18 | 72 | 6.4 | 16.1 | 0.00 | 0.00 | 0.00 | 32 | 1007.2 |
| 20260505003113 | 18 | 68 | 8.0 | 19.3 | 0.00 | 0.00 | 0.00 | 33 | 1007.3 |
| 20260505002628 | 18 | 56 | 9.7 | 20.9 | 0.00 | 0.00 | 0.00 | 33 | 1007.4 |
| 20260505002150 | 18 | 63 | 6.4 | 24.1 | 0.00 | 0.00 | 0.00 | 34 | 1007.4 |
| 20260505001612 | 18 | 129 | 11.3 | 25.7 | 0.00 | 0.00 | 0.00 | 34 | 1007.4 |
| 20260505001121 | 18 | 55 | 12.9 | 29.0 | 0.00 | 0.00 | 0.00 | 34 | 1007.5 |
| 20260505000621 | 18 | 84 | 14.5 | 29.0 | 0.00 | 0.00 | 0.00 | 33 | 1007.6 |
| 20260505000129 | 19 | 83 | 14.5 | 29.0 | 0.00 | 0.00 | 0.00 | 34 | 1007.9 |
| 20260504235630 | 19 | 57 | 12.9 | 41.8 | 0.00 | 0.00 | 0.00 | 35 | 1007.8 |
| 20260504235111 | 18 | 113 | 14.5 | 41.8 | 0.00 | 0.00 | 0.00 | 37 | 1007.8 |
| 20260504234639 | 18 | 115 | 17.7 | 35.4 | 0.00 | 0.00 | 0.00 | 37 | 1008.2 |
| 20260504234120 | 18 | 110 | 14.5 | 37.0 | 0.00 | 0.00 | 0.00 | 36 | 1008.0 |
| 20260504233628 | 19 | 63 | 17.7 | 37.0 | 0.00 | 0.00 | 0.00 | 36 | 1008.0 |
| 20260504233148 | 19 | 152 | 16.1 | 32.2 | 0.00 | 0.00 | 0.00 | 37 | 1008.3 |
| 20260504232635 | 19 | 34 | 11.3 | 24.1 | 0.00 | 0.00 | 0.00 | 38 | 1008.3 |
| 20260504232116 | 18 | 83 | 9.7 | 35.4 | 0.00 | 0.00 | 0.00 | 39 | 1008.3 |
| 20260504231644 | 18 | 49 | 12.9 | 29.0 | 0.00 | 0.00 | 0.00 | 38 | 1008.4 |
| 20260504231124 | 18 | 74 | 16.1 | 29.0 | 0.00 | 0.00 | 0.00 | 38 | 1008.4 |
| 20260504230626 | 17 | 71 | 12.9 | 22.5 | 0.00 | 0.00 | 0.00 | 38 | 1008.4 |
| 20260504230134 | 17 | 110 | 9.7 | 16.1 | 0.00 | 0.00 | 0.00 | 38 | 1008.6 |
| 20260504225615 | 17 | 63 | 4.8 | 11.3 | 0.00 | 0.00 | 0.00 | 42 | 1008.6 |
| 20260504225116 | 17 | 92 | 4.8 | 9.7 | 0.00 | 0.00 | 0.00 | 41 | 1008.6 |
| 20260504224625 | 17 | 105 | 4.8 | 11.3 | 0.00 | 0.00 | 0.00 | 41 | 1008.6 |
| 20260504224128 | 17 | 141 | 3.2 | 11.3 | 0.00 | 0.00 | 0.00 | 40 | 1008.6 |
| 20260504223629 | 17 | 130 | 4.8 | 14.5 | 0.00 | 0.00 | 0.00 | 40 | 1008.5 |
| 20260504223112 | 16 | 181 | 6.4 | 17.7 | 0.00 | 0.00 | 0.00 | 42 | 1008.5 |
| 20260504222640 | 17 | 101 | 6.4 | 17.7 | 0.00 | 0.00 | 0.00 | 42 | 1008.5 |
| 20260504222128 | 17 | 135 | 6.4 | 24.1 | 0.00 | 0.00 | 0.00 | 42 | 1008.3 |
| 20260504221629 | 16 | 197 | 12.9 | 33.8 | 0.00 | 0.00 | 0.00 | 42 | 1008.2 |
| 20260504221130 | 17 | 196 | 16.1 | 33.8 | 0.00 | 0.00 | 0.00 | 43 | 1008.3 |
| 20260504220639 | 18 | 139 | 12.9 | 24.1 | 0.00 | 0.00 | 0.00 | 39 | 1008.1 |
| 20260504220120 | 19 | 175 | 8.0 | 14.5 | 0.00 | 0.00 | 0.00 | 37 | 1007.9 |
| 20260504215631 | 19 | 146 | 4.8 | 24.1 | 0.00 | 0.00 | 0.00 | 33 | 1007.9 |
| 20260504215128 | 20 | 165 | 8.0 | 24.1 | 0.00 | 0.00 | 0.00 | 32 | 1007.9 |
| 20260504214629 | 20 | 41 | 6.4 | 17.7 | 0.00 | 0.00 | 0.00 | 30 | 1007.9 |
| 20260504214118 | 20 | 245 | 9.7 | 17.7 | 0.00 | 0.00 | 0.00 | 29 | 1007.8 |
| 20260504213617 | 21 | 199 | 3.2 | 14.5 | 0.00 | 0.00 | 0.00 | 29 | 1007.8 |
| 20260504213131 | 21 | 255 | 3.2 | 8.0 | 0.00 | 0.00 | 0.00 | 27 | 1007.7 |
| 20260504212632 | 21 | 273 | 1.6 | 9.7 | 0.00 | 0.00 | 0.00 | 27 | 1007.7 |
| 20260504212139 | 21 | 275 | 4.8 | 9.7 | 0.00 | 0.00 | 0.00 | 27 | 1007.7 |
| 20260504211619 | 21 | 288 | 4.8 | 8.0 | 0.00 | 0.00 | 0.00 | 27 | 1007.8 |
| 20260504211119 | 21 | 234 | 0.0 | 8.0 | 0.00 | 0.00 | 0.00 | 29 | 1007.8 |
| 20260504210648 | 22 | 285 | 3.2 | 8.0 | 0.00 | 0.00 | 0.00 | 27 | 1007.9 |
| 20260504210134 | 21 | 319 | 0.0 | 4.8 | 0.00 | 0.00 | 0.00 | 27 | 1007.9 |
| 20260504205616 | 21 | 311 | 1.6 | 8.0 | 0.00 | 0.00 | 0.00 | 28 | 1008.0 |
| 20260504205145 | 22 | 285 | 1.6 | 6.4 | 0.00 | 0.00 | 0.00 | 27 | 1008.1 |
| 20260504204641 | 22 | 44 | 3.2 | 6.4 | 0.00 | 0.00 | 0.00 | 27 | 1008.0 |
| 20260504204127 | 22 | 344 | 0.0 | 6.4 | 0.00 | 0.00 | 0.00 | 26 | 1008.1 |
| 20260504203612 | 22 | 30 | 1.6 | 6.4 | 0.00 | 0.00 | 0.00 | 27 | 1008.0 |
| 20260504203156 | 22 | 260 | 1.6 | 6.4 | 0.00 | 0.00 | 0.00 | 27 | 1008.1 |
| 20260504202615 | 22 | 311 | 1.6 | 8.0 | 0.00 | 0.00 | 0.00 | 27 | 1008.2 |
| 20260504202116 | 22 | 266 | 1.6 | 8.0 | 0.00 | 0.00 | 0.00 | 28 | 1008.3 |
| 20260504201624 | 22 | 299 | 1.6 | 8.0 | 0.00 | 0.00 | 0.00 | 28 | 1008.3 |
| 20260504201124 | 22 | 130 | 3.2 | 12.9 | 0.00 | 0.00 | 0.00 | 26 | 1008.3 |
| 20260504200631 | 22 | 333 | 3.2 | 12.9 | 0.00 | 0.00 | 0.00 | 28 | 1008.4 |
| 20260504200112 | 21 | 285 | 6.4 | 14.5 | 0.00 | 0.00 | 0.00 | 28 | 1008.4 |
| 20260504195614 | 21 | 32 | 3.2 | 12.9 | 0.00 | 0.00 | 0.00 | 28 | 1008.5 |
| 20260504195121 | 22 | 291 | 3.2 | 9.7 | 0.00 | 0.00 | 0.00 | 27 | 1008.5 |
| 20260504194622 | 22 | 264 | 6.4 | 9.7 | 0.00 | 0.00 | 0.00 | 26 | 1008.5 |
| 20260504194130 | 22 | 321 | 1.6 | 12.9 | 0.00 | 0.00 | 0.00 | 26 | 1008.5 |
| 20260504193632 | 22 | 9 | 3.2 | 12.9 | 0.00 | 0.00 | 0.00 | 28 | 1008.6 |
| 20260504193119 | 22 | 309 | 1.6 | 9.7 | 0.00 | 0.00 | 0.00 | 26 | 1008.6 |
| 20260504192639 | 23 | 307 | 6.4 | 9.7 | 0.00 | 0.00 | 0.00 | 25 | 1008.7 |
| 20260504192125 | 23 | 158 | 1.6 | 8.0 | 0.00 | 0.00 | 0.00 | 26 | 1008.6 |
| 20260504191626 | 23 | 136 | 3.2 | 11.3 | 0.00 | 0.00 | 0.00 | 25 | 1008.7 |
| 20260504191135 | 23 | 349 | 3.2 | 12.9 | 0.00 | 0.00 | 0.00 | 23 | 1008.9 |
| 20260504190615 | 24 | 309 | 4.8 | 12.9 | 0.00 | 0.00 | 0.00 | 24 | 1009.0 |
| 20260504190140 | 24 | 334 | 6.4 | 11.3 | 0.00 | 0.00 | 0.00 | 25 | 1009.0 |
| 20260504185640 | 24 | 245 | 1.6 | 11.3 | 0.00 | 0.00 | 0.00 | 27 | 1009.0 |
| 20260504185127 | 23 | 267 | 3.2 | 11.3 | 0.00 | 0.00 | 0.00 | 26 | 1009.0 |
| 20260504184628 | 23 | 293 | 1.6 | 12.9 | 0.00 | 0.00 | 0.00 | 26 | 1009.1 |
| 20260504184137 | 22 | 184 | 6.4 | 12.9 | 0.00 | 0.00 | 0.00 | 26 | 1009.1 |
| 20260504183616 | 23 | 156 | 4.8 | 11.3 | 0.00 | 0.00 | 0.00 | 25 | 1009.2 |
| 20260504183117 | 22 | 259 | 3.2 | 4.8 | 0.00 | 0.00 | 0.00 | 28 | 1009.3 |
| 20260504182624 | 23 | 285 | 1.6 | 6.4 | 0.00 | 0.00 | 0.00 | 25 | 1009.3 |
| 20260504182132 | 22 | 205 | 3.2 | 8.0 | 0.00 | 0.00 | 0.00 | 27 | 1009.4 |
| 20260504181611 | 22 | 27 | 1.6 | 8.0 | 0.00 | 0.00 | 0.00 | 25 | 1009.6 |
| 20260504181139 | 22 | 314 | 1.6 | 6.4 | 0.00 | 0.00 | 0.00 | 27 | 1009.6 |
| 20260504180619 | 22 | 309 | 3.2 | 11.3 | 0.00 | 0.00 | 0.00 | 27 | 1009.7 |
| 20260504180126 | 22 | 272 | 1.6 | 16.1 | 0.00 | 0.00 | 0.00 | 27 | 1009.8 |
| 20260504175626 | 22 | 282 | 4.8 | 16.1 | 0.00 | 0.00 | 0.00 | 29 | 1009.8 |
| 20260504175135 | 22 | 288 | 0.0 | 8.0 | 0.00 | 0.00 | 0.00 | 28 | 1009.7 |
| 20260504174636 | 22 | 221 | 1.6 | 9.7 | 0.00 | 0.00 | 0.00 | 30 | 1009.8 |
| 20260504174124 | 22 | 233 | 3.2 | 8.0 | 0.00 | 0.00 | 0.00 | 31 | 1009.9 |
| 20260504173624 | 22 | 262 | 1.6 | 8.0 | 0.00 | 0.00 | 0.00 | 30 | 1009.9 |
| 20260504173125 | 22 | 255 | 3.2 | 8.0 | 0.00 | 0.00 | 0.00 | 31 | 1009.9 |
| 20260504172633 | 21 | 230 | 1.6 | 4.8 | 0.00 | 0.00 | 0.00 | 30 | 1010.1 |
| 20260504172114 | 21 | 260 | 1.6 | 8.0 | 0.00 | 0.00 | 0.00 | 32 | 1010.1 |
| 20260504171616 | 21 | 240 | 3.2 | 8.0 | 0.00 | 0.00 | 0.00 | 31 | 1010.2 |
| 20260504171116 | 21 | 224 | 1.6 | 8.0 | 0.00 | 0.00 | 0.00 | 31 | 1010.2 |
| 20260504170622 | 21 | 303 | 3.2 | 8.0 | 0.00 | 0.00 | 0.00 | 31 | 1010.2 |
| 20260504170122 | 21 | 270 | 1.6 | 8.0 | 0.00 | 0.00 | 0.00 | 31 | 1010.3 |
| 20260504160135 | 18 | 269 | 0.0 | 3.2 | 0.00 | 0.00 | 0.00 | 32 | 1010.4 |
| 20260504151122 | 19 | 240 | 0.0 | 1.6 | 0.00 | 0.00 | 0.00 | 34 | 1010.8 |
| 20260504150629 | 18 | 118 | 1.6 | 1.6 | 0.00 | 0.00 | 0.00 | 33 | 1010.8 |
| 20260504150130 | 18 | 223 | 0.0 | 1.6 | 0.00 | 0.00 | 0.00 | 34 | 1010.8 |
| 20260504141129 | 15 | 86 | 0.0 | 0.0 | 0.00 | 0.00 | 0.00 | 42 | 1010.9 |
| 20260504140617 | 15 | 86 | 0.0 | 0.0 | 0.00 | 0.00 | 0.00 | 44 | 1010.8 |
| 20260504140125 | 15 | 86 | 0.0 | 0.0 | 0.00 | 0.00 | 0.00 | 44 | 1010.8 |
| 20260504120110 | 13 | 133 | 1.6 | 3.2 | 0.00 | 0.00 | 0.00 | 38 | 1010.7 |
| 20260504110634 | 13 | 317 | 0.0 | 1.6 | 0.00 | 0.00 | 0.00 | 37 | 1010.6 |
| 20260504110136 | 13 | 318 | 0.0 | 1.6 | 0.00 | 0.00 | 0.00 | 36 | 1010.5 |
| 20260504100113 | 14 | 64 | 0.0 | 1.6 | 0.00 | 0.00 | 0.00 | 34 | 1010.3 |
| 20260504090122 | 15 | 322 | 0.0 | 3.2 | 0.00 | 0.00 | 0.00 | 30 | 1009.8 |
| 20260504081641 | 14 | 96 | 6.4 | 20.9 | 0.00 | 0.00 | 0.00 | 29 | 1010.3 |
| 20260504081121 | 15 | 139 | 1.6 | 4.8 | 0.00 | 0.00 | 0.00 | 29 | 1010.2 |
| 20260504080621 | 15 | 58 | 0.0 | 3.2 | 0.00 | 0.00 | 0.00 | 26 | 1009.7 |
| 20260504080130 | 15 | 62 | 0.0 | 1.6 | 0.00 | 0.00 | 0.00 | 27 | 1009.6 |